Year,Month,Day,Hour,Minute,Value (Times are PST for temperature in C)
2009,03,20,00,00,7.40
2009,03,20,00,01,7.40
2009,03,20,00,02,7.40
2009,03,20,00,03,7.40
2009,03,20,00,04,7.40
2009,03,20,00,05,7.40
2009,03,20,00,06,7.40
2009,03,20,00,07,7.40
2009,03,20,00,08,7.40
2009,03,20,00,09,7.40
2009,03,20,00,10,7.40
2009,03,20,00,11,7.40
2009,03,20,00,12,7.40
2009,03,20,00,13,7.40
2009,03,20,00,14,7.40
2009,03,20,00,15,7.40
2009,03,20,00,16,7.40
2009,03,20,00,17,7.40
2009,03,20,00,18,7.40
2009,03,20,00,19,7.40
2009,03,20,00,20,7.40
2009,03,20,00,21,7.40
2009,03,20,00,22,7.40
2009,03,20,00,23,7.40
2009,03,20,00,24,7.40
2009,03,20,00,25,7.40
2009,03,20,00,26,7.30
2009,03,20,00,27,7.30
2009,03,20,00,28,7.30
2009,03,20,00,29,7.40
2009,03,20,00,30,7.40
2009,03,20,00,31,7.40
2009,03,20,00,32,7.40
2009,03,20,00,33,7.40
2009,03,20,00,34,7.50
2009,03,20,00,35,7.50
2009,03,20,00,36,7.50
2009,03,20,00,37,7.50
2009,03,20,00,38,7.50
2009,03,20,00,39,7.50
2009,03,20,00,40,7.40
2009,03,20,00,41,7.40
2009,03,20,00,42,7.40
2009,03,20,00,43,7.40
2009,03,20,00,44,7.40
2009,03,20,00,45,7.40
2009,03,20,00,46,7.40
2009,03,20,00,47,7.30
2009,03,20,00,48,7.30
2009,03,20,00,49,7.30
2009,03,20,00,50,7.30
2009,03,20,00,51,7.20
2009,03,20,00,52,7.20
2009,03,20,00,53,7.20
2009,03,20,00,54,7.20
2009,03,20,00,55,7.20
2009,03,20,00,56,7.20
2009,03,20,00,57,7.20
2009,03,20,00,58,7.20
2009,03,20,00,59,7.20
2009,03,20,01,00,7.10
2009,03,20,01,01,7.10
2009,03,20,01,02,7.10
2009,03,20,01,03,7.10
2009,03,20,01,04,7.10
2009,03,20,01,05,7.10
2009,03,20,01,06,7.10
2009,03,20,01,07,7.10
2009,03,20,01,08,7.10
2009,03,20,01,09,7.10
2009,03,20,01,10,7.10
2009,03,20,01,11,7.10
2009,03,20,01,12,7.10
2009,03,20,01,13,7.10
2009,03,20,01,14,7.10
2009,03,20,01,15,7.10
2009,03,20,01,16,7.10
2009,03,20,01,17,7.10
2009,03,20,01,18,7.10
2009,03,20,01,19,7.10
2009,03,20,01,20,7.10
2009,03,20,01,21,7.10
2009,03,20,01,22,7.10
2009,03,20,01,23,7.10
2009,03,20,01,24,7.10
2009,03,20,01,25,7.00
2009,03,20,01,26,7.00
2009,03,20,01,27,7.00
2009,03,20,01,28,7.00
2009,03,20,01,29,7.00
2009,03,20,01,30,7.00
2009,03,20,01,31,7.00
2009,03,20,01,32,6.90
2009,03,20,01,33,6.90
2009,03,20,01,34,6.90
2009,03,20,01,35,6.90
2009,03,20,01,36,6.90
2009,03,20,01,37,6.90
2009,03,20,01,38,6.90
2009,03,20,01,39,6.90
2009,03,20,01,40,6.90
2009,03,20,01,41,6.80
2009,03,20,01,42,6.80
2009,03,20,01,43,6.80
2009,03,20,01,44,6.80
2009,03,20,01,45,6.80
2009,03,20,01,46,6.80
2009,03,20,01,47,6.80
2009,03,20,01,48,6.80
2009,03,20,01,49,6.80
2009,03,20,01,50,6.80
2009,03,20,01,51,6.80
2009,03,20,01,52,6.80
2009,03,20,01,53,6.80
2009,03,20,01,54,6.70
2009,03,20,01,55,6.70
2009,03,20,01,56,6.70
2009,03,20,01,57,6.70
2009,03,20,01,58,6.70
2009,03,20,01,59,6.70
2009,03,20,02,00,6.70
2009,03,20,02,01,6.70
2009,03,20,02,02,6.70
2009,03,20,02,03,6.70
2009,03,20,02,04,6.70
2009,03,20,02,05,6.70
2009,03,20,02,06,6.70
2009,03,20,02,07,6.70
2009,03,20,02,08,6.80
2009,03,20,02,09,6.80
2009,03,20,02,10,6.80
2009,03,20,02,11,6.80
2009,03,20,02,12,6.80
2009,03,20,02,13,6.80
2009,03,20,02,14,6.80
2009,03,20,02,15,6.80
2009,03,20,02,16,6.80
2009,03,20,02,17,6.80
2009,03,20,02,18,6.80
2009,03,20,02,19,6.80
2009,03,20,02,20,6.80
2009,03,20,02,21,6.80
2009,03,20,02,22,6.80
2009,03,20,02,23,6.80
2009,03,20,02,24,6.80
2009,03,20,02,25,6.80
2009,03,20,02,26,6.80
2009,03,20,02,27,6.80
2009,03,20,02,28,6.80
2009,03,20,02,29,6.80
2009,03,20,02,30,6.80
2009,03,20,02,31,6.80
2009,03,20,02,32,6.80
2009,03,20,02,33,6.80
2009,03,20,02,34,6.80
2009,03,20,02,35,6.80
2009,03,20,02,36,6.80
2009,03,20,02,37,6.80
2009,03,20,02,38,6.80
2009,03,20,02,39,6.80
2009,03,20,02,40,6.80
2009,03,20,02,41,6.80
2009,03,20,02,42,6.80
2009,03,20,02,43,6.90
2009,03,20,02,44,6.90
2009,03,20,02,45,6.90
2009,03,20,02,46,6.90
2009,03,20,02,47,6.90
2009,03,20,02,48,6.90
2009,03,20,02,49,6.90
2009,03,20,02,50,6.90
2009,03,20,02,51,6.90
2009,03,20,02,52,6.90
2009,03,20,02,53,6.90
2009,03,20,02,54,7.00
2009,03,20,02,55,7.00
2009,03,20,02,56,7.00
2009,03,20,02,57,7.00
2009,03,20,02,58,7.00
2009,03,20,02,59,7.00
2009,03,20,03,00,7.00
2009,03,20,03,01,7.00
2009,03,20,03,02,7.00
2009,03,20,03,03,7.00
2009,03,20,03,04,7.00
2009,03,20,03,05,7.00
2009,03,20,03,06,7.00
2009,03,20,03,07,7.00
2009,03,20,03,08,7.00
2009,03,20,03,09,7.00
2009,03,20,03,10,7.00
2009,03,20,03,11,7.00
2009,03,20,03,12,7.00
2009,03,20,03,13,7.00
2009,03,20,03,14,7.00
2009,03,20,03,15,7.00
2009,03,20,03,16,7.00
2009,03,20,03,17,7.00
2009,03,20,03,18,7.00
2009,03,20,03,19,7.00
2009,03,20,03,20,7.00
2009,03,20,03,21,7.00
2009,03,20,03,22,7.00
2009,03,20,03,23,7.00
2009,03,20,03,24,7.00
2009,03,20,03,25,7.00
2009,03,20,03,26,7.00
2009,03,20,03,27,7.00
2009,03,20,03,28,7.00
2009,03,20,03,29,7.00
2009,03,20,03,30,7.00
2009,03,20,03,31,7.00
2009,03,20,03,32,7.00
2009,03,20,03,33,7.00
2009,03,20,03,34,7.00
2009,03,20,03,35,7.00
2009,03,20,03,36,7.00
2009,03,20,03,37,7.00
2009,03,20,03,38,6.90
2009,03,20,03,39,7.00
2009,03,20,03,40,7.00
2009,03,20,03,41,7.00
2009,03,20,03,42,7.00
2009,03,20,03,43,7.00
2009,03,20,03,44,7.00
2009,03,20,03,45,7.00
2009,03,20,03,46,7.00
2009,03,20,03,47,7.00
2009,03,20,03,48,7.00
2009,03,20,03,49,6.90
2009,03,20,03,50,6.90
2009,03,20,03,51,6.90
2009,03,20,03,52,6.90
2009,03,20,03,53,6.90
2009,03,20,03,54,6.90
2009,03,20,03,55,6.90
2009,03,20,03,56,6.90
2009,03,20,03,57,6.90
2009,03,20,03,58,6.90
2009,03,20,03,59,6.90
2009,03,20,04,00,6.90
2009,03,20,04,01,6.90
2009,03,20,04,02,6.90
2009,03,20,04,03,6.90
2009,03,20,04,04,6.90
2009,03,20,04,05,6.90
2009,03,20,04,06,6.80
2009,03,20,04,07,6.80
2009,03,20,04,08,6.80
2009,03,20,04,09,6.80
2009,03,20,04,10,6.80
2009,03,20,04,11,6.80
2009,03,20,04,12,6.80
2009,03,20,04,13,6.80
2009,03,20,04,14,6.80
2009,03,20,04,15,6.80
2009,03,20,04,16,6.80
2009,03,20,04,17,6.80
2009,03,20,04,18,6.70
2009,03,20,04,19,6.70
2009,03,20,04,20,6.70
2009,03,20,04,21,6.70
2009,03,20,04,22,6.70
2009,03,20,04,23,6.70
2009,03,20,04,24,6.80
2009,03,20,04,25,6.80
2009,03,20,04,26,6.80
2009,03,20,04,27,6.80
2009,03,20,04,28,6.80
2009,03,20,04,29,6.80
2009,03,20,04,30,6.80
2009,03,20,04,31,6.80
2009,03,20,04,32,6.80
2009,03,20,04,33,6.80
2009,03,20,04,34,6.70
2009,03,20,04,35,6.70
2009,03,20,04,36,6.70
2009,03,20,04,37,6.70
2009,03,20,04,38,6.70
2009,03,20,04,39,6.70
2009,03,20,04,40,6.60
2009,03,20,04,41,6.60
2009,03,20,04,42,6.60
2009,03,20,04,43,6.60
2009,03,20,04,44,6.60
2009,03,20,04,45,6.60
2009,03,20,04,46,6.60
2009,03,20,04,47,6.60
2009,03,20,04,48,6.60
2009,03,20,04,49,6.60
2009,03,20,04,50,6.60
2009,03,20,04,51,6.60
2009,03,20,04,52,6.50
2009,03,20,04,53,6.60
2009,03,20,04,54,6.50
2009,03,20,04,55,6.50
2009,03,20,04,56,6.50
2009,03,20,04,57,6.50
2009,03,20,04,58,6.50
2009,03,20,04,59,6.50
2009,03,20,05,00,6.50
2009,03,20,05,01,6.40
2009,03,20,05,02,6.40
2009,03,20,05,03,6.40
2009,03,20,05,04,6.30
2009,03,20,05,05,6.30
2009,03,20,05,06,6.30
2009,03,20,05,07,6.30
2009,03,20,05,08,6.20
2009,03,20,05,09,6.20
2009,03,20,05,10,6.20
2009,03,20,05,11,6.20
2009,03,20,05,12,6.10
2009,03,20,05,13,6.10
2009,03,20,05,14,6.10
2009,03,20,05,15,6.10
2009,03,20,05,16,6.10
2009,03,20,05,17,6.10
2009,03,20,05,18,6.10
2009,03,20,05,19,6.10
2009,03,20,05,20,6.10
2009,03,20,05,21,6.10
2009,03,20,05,22,6.00
2009,03,20,05,23,6.00
2009,03,20,05,24,6.00
2009,03,20,05,25,6.00
2009,03,20,05,26,6.10
2009,03,20,05,27,6.10
2009,03,20,05,28,6.10
2009,03,20,05,29,6.10
2009,03,20,05,30,6.10
2009,03,20,05,31,6.10
2009,03,20,05,32,6.10
2009,03,20,05,33,6.00
2009,03,20,05,34,6.00
2009,03,20,05,35,6.00
2009,03,20,05,36,6.00
2009,03,20,05,37,6.00
2009,03,20,05,38,6.00
2009,03,20,05,39,6.00
2009,03,20,05,40,6.00
2009,03,20,05,41,6.10
2009,03,20,05,42,6.10
2009,03,20,05,43,6.10
2009,03,20,05,44,6.10
2009,03,20,05,45,6.10
2009,03,20,05,46,6.10
2009,03,20,05,47,6.10
2009,03,20,05,48,6.00
2009,03,20,05,49,6.00
2009,03,20,05,50,5.90
2009,03,20,05,51,5.90
2009,03,20,05,52,5.90
2009,03,20,05,53,5.80
2009,03,20,05,54,5.80
2009,03,20,05,55,5.70
2009,03,20,05,56,5.70
2009,03,20,05,57,5.70
2009,03,20,05,58,5.70
2009,03,20,05,59,5.70
2009,03,20,06,00,5.70
2009,03,20,06,01,5.70
2009,03,20,06,02,5.60
2009,03,20,06,03,5.60
2009,03,20,06,04,5.50
2009,03,20,06,05,5.50
2009,03,20,06,06,5.40
2009,03,20,06,07,5.30
2009,03,20,06,08,5.30
2009,03,20,06,09,5.30
2009,03,20,06,10,5.30
2009,03,20,06,11,5.20
2009,03,20,06,12,5.20
2009,03,20,06,13,5.20
2009,03,20,06,14,5.20
2009,03,20,06,15,5.20
2009,03,20,06,16,5.10
2009,03,20,06,17,5.10
2009,03,20,06,18,5.10
2009,03,20,06,19,5.10
2009,03,20,06,20,5.10
2009,03,20,06,21,5.10
2009,03,20,06,22,5.10
2009,03,20,06,23,5.20
2009,03,20,06,24,5.20
2009,03,20,06,25,5.20
2009,03,20,06,26,5.20
2009,03,20,06,27,5.20
2009,03,20,06,28,5.20
2009,03,20,06,29,5.20
2009,03,20,06,30,5.20
2009,03,20,06,31,5.20
2009,03,20,06,32,5.20
2009,03,20,06,33,5.30
2009,03,20,06,34,5.30
2009,03,20,06,35,5.30
2009,03,20,06,36,5.30
2009,03,20,06,37,5.40
2009,03,20,06,38,5.40
2009,03,20,06,39,5.40
2009,03,20,06,40,5.50
2009,03,20,06,41,5.50
2009,03,20,06,42,5.50
2009,03,20,06,43,5.60
2009,03,20,06,44,5.60
2009,03,20,06,45,5.70
2009,03,20,06,46,5.80
2009,03,20,06,47,5.90
2009,03,20,06,48,5.90
2009,03,20,06,49,5.90
2009,03,20,06,50,5.90
2009,03,20,06,51,5.90
2009,03,20,06,52,5.90
2009,03,20,06,53,5.90
2009,03,20,06,54,5.90
2009,03,20,06,55,5.90
2009,03,20,06,56,5.80
2009,03,20,06,57,5.80
2009,03,20,06,58,5.80
2009,03,20,06,59,5.80
2009,03,20,07,00,5.80
2009,03,20,07,01,5.90
2009,03,20,07,02,5.90
2009,03,20,07,03,5.90
2009,03,20,07,04,6.00
2009,03,20,07,05,6.00
2009,03,20,07,06,6.00
2009,03,20,07,07,6.00
2009,03,20,07,08,6.00
2009,03,20,07,09,6.00
2009,03,20,07,10,5.90
2009,03,20,07,11,5.80
2009,03,20,07,12,5.80
2009,03,20,07,13,5.80
2009,03,20,07,14,5.70
2009,03,20,07,15,5.70
2009,03,20,07,16,5.70
2009,03,20,07,17,5.70
2009,03,20,07,18,5.70
2009,03,20,07,19,5.70
2009,03,20,07,20,5.70
2009,03,20,07,21,5.70
2009,03,20,07,22,5.70
2009,03,20,07,23,5.60
2009,03,20,07,24,5.60
2009,03,20,07,25,5.50
2009,03,20,07,26,5.50
2009,03,20,07,27,5.40
2009,03,20,07,28,5.40
2009,03,20,07,29,5.40
2009,03,20,07,30,5.40
2009,03,20,07,31,5.40
2009,03,20,07,32,5.50
2009,03,20,07,33,5.50
2009,03,20,07,34,5.50
2009,03,20,07,35,5.60
2009,03,20,07,36,5.60
2009,03,20,07,37,5.60
2009,03,20,07,38,5.60
2009,03,20,07,39,5.60
2009,03,20,07,40,5.60
2009,03,20,07,41,5.60
2009,03,20,07,42,5.50
2009,03,20,07,43,5.50
2009,03,20,07,44,5.50
2009,03,20,07,45,5.50
2009,03,20,07,46,5.60
2009,03,20,07,47,5.60
2009,03,20,07,48,5.70
2009,03,20,07,49,5.70
2009,03,20,07,50,5.70
2009,03,20,07,51,5.70
2009,03,20,07,52,5.70
2009,03,20,07,53,5.80
2009,03,20,07,54,5.80
2009,03,20,07,55,5.80
2009,03,20,07,56,5.80
2009,03,20,07,57,5.80
2009,03,20,07,58,5.80
2009,03,20,07,59,5.80
2009,03,20,08,01,5.80
2009,03,20,08,08,5.80
2009,03,20,08,10,5.80
2009,03,20,08,11,5.70
2009,03,20,08,12,5.60
2009,03,20,08,13,5.50
2009,03,20,08,14,5.50
2009,03,20,08,15,5.40
2009,03,20,08,16,5.40
2009,03,20,08,17,5.40
2009,03,20,08,18,5.40
2009,03,20,08,19,5.40
2009,03,20,08,20,5.30
2009,03,20,08,21,5.30
2009,03,20,08,22,5.30
2009,03,20,08,23,5.30
2009,03,20,08,24,5.30
2009,03,20,08,25,5.30
2009,03,20,08,26,5.40
2009,03,20,08,27,5.30
2009,03,20,08,28,5.30
2009,03,20,08,29,5.30
2009,03,20,08,30,5.30
2009,03,20,08,31,5.30
2009,03,20,08,32,5.40
2009,03,20,08,33,5.40
2009,03,20,08,34,5.40
2009,03,20,08,35,5.40
2009,03,20,09,58,7.20
2009,03,20,10,26,7.40
2009,03,20,10,30,7.60
2009,03,20,10,31,7.60
2009,03,20,10,32,7.60
2009,03,20,10,33,7.60
2009,03,20,10,34,7.60
2009,03,20,10,35,7.70
2009,03,20,10,36,7.70
2009,03,20,10,37,7.80
2009,03,20,10,38,7.80
2009,03,20,10,39,7.90
2009,03,20,10,40,7.90
2009,03,20,10,41,8.00
2009,03,20,10,42,8.00
2009,03,20,10,43,8.10
2009,03,20,10,44,8.20
2009,03,20,10,45,8.20
2009,03,20,10,46,8.30
2009,03,20,10,47,8.30
2009,03,20,10,48,8.40
2009,03,20,10,49,8.40
2009,03,20,10,50,8.40
2009,03,20,10,51,8.50
2009,03,20,10,52,8.50
2009,03,20,10,53,8.60
2009,03,20,10,54,8.60
2009,03,20,10,55,8.60
2009,03,20,10,56,8.60
2009,03,20,10,57,8.70
2009,03,20,10,58,8.70
2009,03,20,10,59,8.70
2009,03,20,11,00,8.80
2009,03,20,11,01,8.80
2009,03,20,11,02,8.80
2009,03,20,11,03,8.80
2009,03,20,11,04,8.80
2009,03,20,11,05,8.80
2009,03,20,11,06,8.90
2009,03,20,11,07,8.90
2009,03,20,11,08,8.90
2009,03,20,11,09,9.00
2009,03,20,11,10,9.00
2009,03,20,11,11,9.00
2009,03,20,11,12,9.00
2009,03,20,11,13,9.00
2009,03,20,11,14,9.00
2009,03,20,11,15,9.10
2009,03,20,11,16,9.10
2009,03,20,11,17,9.10
2009,03,20,11,18,9.10
2009,03,20,11,19,9.00
2009,03,20,11,20,9.00
2009,03,20,11,21,9.00
2009,03,20,11,22,8.90
2009,03,20,11,23,8.80
2009,03,20,11,24,8.80
2009,03,20,11,25,8.80
2009,03,20,11,26,8.80
2009,03,20,11,27,8.80
2009,03,20,11,28,8.70
2009,03,20,11,29,8.70
2009,03,20,11,30,8.70
2009,03,20,11,31,8.70
2009,03,20,11,32,8.70
2009,03,20,11,33,8.70
2009,03,20,11,34,8.70
2009,03,20,11,35,8.70
2009,03,20,11,36,8.60
2009,03,20,11,37,8.60
2009,03,20,11,38,8.60
2009,03,20,11,39,8.50
2009,03,20,11,40,8.50
2009,03,20,11,41,8.50
2009,03,20,11,42,8.40
2009,03,20,11,43,8.40
2009,03,20,11,44,8.50
2009,03,20,11,45,8.50
2009,03,20,11,46,8.50
2009,03,20,11,47,8.50
2009,03,20,11,48,8.60
2009,03,20,11,49,8.60
2009,03,20,11,50,8.60
2009,03,20,11,51,8.70
2009,03,20,11,52,8.70
2009,03,20,11,53,8.80
2009,03,20,11,54,8.80
2009,03,20,11,55,8.80
2009,03,20,11,56,8.90
2009,03,20,11,57,8.90
2009,03,20,11,58,9.00
2009,03,20,11,59,9.10
2009,03,20,12,00,9.20
2009,03,20,12,01,9.20
2009,03,20,12,02,9.20
2009,03,20,12,03,9.30
2009,03,20,12,04,9.40
2009,03,20,12,05,9.50
2009,03,20,12,06,9.60
2009,03,20,12,07,9.70
2009,03,20,12,08,9.80
2009,03,20,12,09,9.90
2009,03,20,12,10,10.10
2009,03,20,12,11,10.20
2009,03,20,12,12,10.30
2009,03,20,12,13,10.40
2009,03,20,12,14,10.60
2009,03,20,12,15,10.70
2009,03,20,12,16,10.70
2009,03,20,12,17,10.70
2009,03,20,12,18,10.60
2009,03,20,12,19,10.50
2009,03,20,12,20,10.50
2009,03,20,12,21,10.50
2009,03,20,12,22,10.50
2009,03,20,12,23,10.40
2009,03,20,12,24,10.40
2009,03,20,12,25,10.40
2009,03,20,12,26,10.50
2009,03,20,12,27,10.60
2009,03,20,12,28,10.60
2009,03,20,12,29,10.60
2009,03,20,12,30,10.60
2009,03,20,12,31,10.60
2009,03,20,12,32,10.60
2009,03,20,12,33,10.60
2009,03,20,12,34,10.70
2009,03,20,12,35,10.70
2009,03,20,12,36,10.70
2009,03,20,12,37,10.70
2009,03,20,12,38,10.70
2009,03,20,12,39,10.70
2009,03,20,12,40,10.60
2009,03,20,12,41,10.60
2009,03,20,12,42,10.70
2009,03,20,12,43,10.80
2009,03,20,12,44,10.80
2009,03,20,12,45,10.90
2009,03,20,12,46,11.00
2009,03,20,12,47,11.10
2009,03,20,12,48,11.10
2009,03,20,12,49,11.20
2009,03,20,12,50,11.10
2009,03,20,12,51,11.00
2009,03,20,12,52,11.00
2009,03,20,12,53,11.10
2009,03,20,12,54,11.10
2009,03,20,12,55,11.10
2009,03,20,12,56,11.10
2009,03,20,12,57,11.10
2009,03,20,12,58,11.00
2009,03,20,12,59,11.00
2009,03,20,13,00,10.90
2009,03,20,13,01,10.80
2009,03,20,13,02,10.80
2009,03,20,13,03,10.90
2009,03,20,13,04,10.90
2009,03,20,13,05,10.90
2009,03,20,13,06,11.00
2009,03,20,13,07,10.90
2009,03,20,13,08,11.00
2009,03,20,13,09,11.10
2009,03,20,13,10,11.10
2009,03,20,13,11,11.10
2009,03,20,13,12,11.10
2009,03,20,13,13,11.10
2009,03,20,13,14,10.90
2009,03,20,13,15,10.80
2009,03,20,13,16,10.70
2009,03,20,13,17,10.70
2009,03,20,13,18,10.70
2009,03,20,13,19,10.70
2009,03,20,13,20,10.70
2009,03,20,13,21,10.80
2009,03,20,13,22,10.80
2009,03,20,13,23,10.90
2009,03,20,13,24,10.90
2009,03,20,13,25,11.00
2009,03,20,13,26,11.10
2009,03,20,13,27,11.20
2009,03,20,13,28,11.10
2009,03,20,13,29,11.20
2009,03,20,13,30,11.20
2009,03,20,13,31,11.30
2009,03,20,13,32,11.20
2009,03,20,13,33,11.00
2009,03,20,13,34,10.90
2009,03,20,13,35,10.90
2009,03,20,13,36,10.90
2009,03,20,13,37,10.70
2009,03,20,13,38,10.60
2009,03,20,13,39,10.50
2009,03,20,13,40,10.50
2009,03,20,13,41,10.30
2009,03,20,13,42,10.30
2009,03,20,13,43,10.30
2009,03,20,13,44,10.30
2009,03,20,13,45,10.30
2009,03,20,13,46,10.30
2009,03,20,13,47,10.30
2009,03,20,13,48,10.30
2009,03,20,13,49,10.40
2009,03,20,13,50,10.50
2009,03,20,13,51,10.60
2009,03,20,13,52,10.70
2009,03,20,13,53,10.70
2009,03,20,13,54,10.80
2009,03,20,13,55,10.80
2009,03,20,13,56,10.90
2009,03,20,13,57,10.90
2009,03,20,13,58,10.90
2009,03,20,13,59,10.90
2009,03,20,14,00,10.90
2009,03,20,14,01,11.00
2009,03,20,14,02,11.20
2009,03,20,14,03,11.20
2009,03,20,14,04,11.20
2009,03,20,14,05,11.30
2009,03,20,14,06,11.10
2009,03,20,14,07,11.00
2009,03,20,14,08,10.80
2009,03,20,14,09,10.60
2009,03,20,14,10,10.50
2009,03,20,14,11,10.50
2009,03,20,14,12,10.60
2009,03,20,14,13,10.70
2009,03,20,14,14,10.70
2009,03,20,14,15,10.60
2009,03,20,14,16,10.40
2009,03,20,14,17,10.30
2009,03,20,14,18,10.20
2009,03,20,14,19,10.20
2009,03,20,14,20,10.20
2009,03,20,14,21,10.20
2009,03,20,14,22,10.20
2009,03,20,14,23,10.20
2009,03,20,14,24,10.10
2009,03,20,14,25,10.10
2009,03,20,14,26,10.10
2009,03,20,14,27,10.10
2009,03,20,14,28,10.10
2009,03,20,14,29,10.00
2009,03,20,14,30,9.90
2009,03,20,14,31,9.90
2009,03,20,14,32,9.80
2009,03,20,14,33,9.60
2009,03,20,14,34,9.60
2009,03,20,14,35,9.40
2009,03,20,14,36,9.40
2009,03,20,14,37,9.30
2009,03,20,14,38,9.20
2009,03,20,14,39,9.10
2009,03,20,14,40,9.00
2009,03,20,14,41,8.90
2009,03,20,14,42,8.80
2009,03,20,14,43,8.70
2009,03,20,14,44,8.70
2009,03,20,14,45,8.70
2009,03,20,14,46,8.70
2009,03,20,14,47,8.70
2009,03,20,14,48,8.70
2009,03,20,14,49,8.70
2009,03,20,14,50,8.70
2009,03,20,14,51,8.70
2009,03,20,14,52,8.70
2009,03,20,14,53,8.60
2009,03,20,14,54,8.50
2009,03,20,14,55,8.40
2009,03,20,14,56,8.40
2009,03,20,14,57,8.40
2009,03,20,14,58,8.30
2009,03,20,14,59,8.30
2009,03,20,15,00,8.30
2009,03,20,15,01,8.30
2009,03,20,15,02,8.30
2009,03,20,15,03,8.20
2009,03,20,15,04,8.20
2009,03,20,15,05,8.20
2009,03,20,15,06,8.20
2009,03,20,15,07,8.20
2009,03,20,15,08,8.20
2009,03,20,15,09,8.30
2009,03,20,15,10,8.30
2009,03,20,15,11,8.30
2009,03,20,15,12,8.40
2009,03,20,15,13,8.50
2009,03,20,15,14,8.50
2009,03,20,15,15,8.50
2009,03,20,15,16,8.60
2009,03,20,15,17,8.60
2009,03,20,15,18,8.60
2009,03,20,15,19,8.50
2009,03,20,15,20,8.40
2009,03,20,15,21,8.20
2009,03,20,15,22,8.10
2009,03,20,15,23,7.80
2009,03,20,15,24,7.60
2009,03,20,15,25,7.40
2009,03,20,15,26,7.20
2009,03,20,15,27,7.20
2009,03,20,15,28,7.10
2009,03,20,15,29,6.90
2009,03,20,15,30,6.80
2009,03,20,15,31,6.70
2009,03,20,15,32,6.60
2009,03,20,15,33,6.50
2009,03,20,15,34,6.40
2009,03,20,15,35,6.20
2009,03,20,15,36,6.10
2009,03,20,15,37,6.00
2009,03,20,15,38,5.90
2009,03,20,15,39,5.70
2009,03,20,15,40,5.60
2009,03,20,15,41,5.40
2009,03,20,15,42,5.20
2009,03,20,15,43,5.10
2009,03,20,15,44,4.90
2009,03,20,15,45,4.80
2009,03,20,15,46,4.80
2009,03,20,15,47,4.80
2009,03,20,15,48,4.80
2009,03,20,15,49,4.90
2009,03,20,15,50,4.90
2009,03,20,15,51,5.00
2009,03,20,15,52,5.00
2009,03,20,15,53,5.00
2009,03,20,15,54,5.10
2009,03,20,15,55,5.10
2009,03,20,15,56,5.10
2009,03,20,15,57,5.10
2009,03,20,15,58,5.00
2009,03,20,15,59,5.00
2009,03,20,16,00,5.00
2009,03,20,16,01,4.90
2009,03,20,16,02,4.90
2009,03,20,16,03,4.80
2009,03,20,16,04,4.90
2009,03,20,16,05,4.90
2009,03,20,16,06,4.90
2009,03,20,16,07,4.90
2009,03,20,16,08,5.00
2009,03,20,16,09,5.10
2009,03,20,16,10,5.10
2009,03,20,16,11,5.10
2009,03,20,16,12,5.10
2009,03,20,16,13,5.20
2009,03,20,16,14,5.20
2009,03,20,16,15,5.30
2009,03,20,16,16,5.30
2009,03,20,16,17,5.30
2009,03,20,16,18,5.30
2009,03,20,16,19,5.30
2009,03,20,16,20,5.40
2009,03,20,16,21,5.40
2009,03,20,16,22,5.50
2009,03,20,16,23,5.50
2009,03,20,16,24,5.50
2009,03,20,16,25,5.50
2009,03,20,16,26,5.50
2009,03,20,16,27,5.60
2009,03,20,16,28,5.60
2009,03,20,16,29,5.60
2009,03,20,16,30,5.60
2009,03,20,16,31,5.50
2009,03,20,16,32,5.40
2009,03,20,16,33,5.40
2009,03,20,16,34,5.40
2009,03,20,16,35,5.40
2009,03,20,16,36,5.50
2009,03,20,16,37,5.50
2009,03,20,16,38,5.50
2009,03,20,16,39,5.50
2009,03,20,16,40,5.40
2009,03,20,16,41,5.30
2009,03,20,16,42,5.30
2009,03,20,16,43,5.30
2009,03,20,16,44,5.30
2009,03,20,16,45,5.30
2009,03,20,16,46,5.20
2009,03,20,16,47,5.20
2009,03,20,16,48,5.20
2009,03,20,16,49,5.20
2009,03,20,16,50,5.20
2009,03,20,16,51,5.20
2009,03,20,16,52,5.20
2009,03,20,16,53,5.20
2009,03,20,16,54,5.30
2009,03,20,16,55,5.30
2009,03,20,16,56,5.30
2009,03,20,16,57,5.30
2009,03,20,16,58,5.30
2009,03,20,16,59,5.20
2009,03,20,17,00,5.20
2009,03,20,17,01,5.20
2009,03,20,17,02,5.20
2009,03,20,17,03,5.20
2009,03,20,17,04,5.10
2009,03,20,17,05,5.10
2009,03,20,17,06,5.10
2009,03,20,17,07,5.10
2009,03,20,17,08,5.10
2009,03,20,17,09,5.10
2009,03,20,17,10,5.10
2009,03,20,17,11,5.10
2009,03,20,17,12,5.10
2009,03,20,17,13,5.10
2009,03,20,17,14,5.10
2009,03,20,17,15,5.10
2009,03,20,17,16,5.10
2009,03,20,17,17,5.10
2009,03,20,17,18,5.00
2009,03,20,17,19,5.00
2009,03,20,17,20,5.00
2009,03,20,17,21,5.00
2009,03,20,17,22,5.00
2009,03,20,17,23,5.00
2009,03,20,17,24,5.10
2009,03,20,17,25,5.10
2009,03,20,17,26,5.10
2009,03,20,17,27,5.10
2009,03,20,17,28,5.10
2009,03,20,17,29,5.20
2009,03,20,17,30,5.20
2009,03,20,17,31,5.20
2009,03,20,17,32,5.20
2009,03,20,17,33,5.20
2009,03,20,17,34,5.20
2009,03,20,17,35,5.20
2009,03,20,17,36,5.20
2009,03,20,17,37,5.20
2009,03,20,17,38,5.20
2009,03,20,17,39,5.30
2009,03,20,17,40,5.40
2009,03,20,17,41,5.40
2009,03,20,17,42,5.40
2009,03,20,17,43,5.50
2009,03,20,17,44,5.60
2009,03,20,17,45,5.60
2009,03,20,17,46,5.60
2009,03,20,17,47,5.60
2009,03,20,17,48,5.60
2009,03,20,17,49,5.60
2009,03,20,17,50,5.50
2009,03,20,17,51,5.40
2009,03,20,17,52,5.40
2009,03,20,17,53,5.40
2009,03,20,17,54,5.40
2009,03,20,17,55,5.40
2009,03,20,17,56,5.40
2009,03,20,17,57,5.40
2009,03,20,17,58,5.40
2009,03,20,17,59,5.40
2009,03,20,18,00,5.40
2009,03,20,18,01,5.40
2009,03,20,18,02,5.30
2009,03,20,18,03,5.30
2009,03,20,18,04,5.30
2009,03,20,18,05,5.20
2009,03,20,18,06,5.20
2009,03,20,18,07,5.20
2009,03,20,18,08,5.20
2009,03,20,18,09,5.20
2009,03,20,18,10,5.20
2009,03,20,18,11,5.20
2009,03,20,18,12,5.20
2009,03,20,18,13,5.20
2009,03,20,18,14,5.10
2009,03,20,18,15,5.10
2009,03,20,18,16,5.10
2009,03,20,18,17,5.10
2009,03,20,18,18,5.10
2009,03,20,18,19,5.10
2009,03,20,18,20,5.10
2009,03,20,18,21,5.10
2009,03,20,18,22,5.10
2009,03,20,18,23,5.10
2009,03,20,18,24,5.10
2009,03,20,18,25,5.00
2009,03,20,18,26,5.00
2009,03,20,18,27,5.00
2009,03,20,18,28,5.00
2009,03,20,18,29,5.00
2009,03,20,18,30,5.00
2009,03,20,18,31,5.00
2009,03,20,18,32,5.00
2009,03,20,18,33,5.00
2009,03,20,18,34,5.00
2009,03,20,18,35,5.00
2009,03,20,18,36,5.00
2009,03,20,18,37,5.00
2009,03,20,18,38,5.00
2009,03,20,18,39,5.00
2009,03,20,18,40,5.00
2009,03,20,18,41,5.00
2009,03,20,18,42,4.90
2009,03,20,18,43,4.90
2009,03,20,18,44,4.90
2009,03,20,18,45,4.90
2009,03,20,18,46,4.90
2009,03,20,18,47,4.90
2009,03,20,18,48,4.90
2009,03,20,18,49,4.90
2009,03,20,18,50,4.90
2009,03,20,18,51,4.90
2009,03,20,18,52,4.90
2009,03,20,18,53,4.90
2009,03,20,18,54,4.90
2009,03,20,18,55,4.90
2009,03,20,18,56,4.90
2009,03,20,18,57,4.90
2009,03,20,18,58,4.90
2009,03,20,18,59,4.90
2009,03,20,19,00,4.90
2009,03,20,19,01,4.80
2009,03,20,19,02,4.80
2009,03,20,19,03,4.80
2009,03,20,19,04,4.80
2009,03,20,19,05,4.80
2009,03,20,19,06,4.80
2009,03,20,19,07,4.80
2009,03,20,19,08,4.80
2009,03,20,19,09,4.80
2009,03,20,19,10,4.80
2009,03,20,19,11,4.80
2009,03,20,19,12,4.80
2009,03,20,19,13,4.80
2009,03,20,19,14,4.70
2009,03,20,19,15,4.70
2009,03,20,19,16,4.70
2009,03,20,19,17,4.70
2009,03,20,19,18,4.70
2009,03,20,19,19,4.70
2009,03,20,19,20,4.70
2009,03,20,19,21,4.70
2009,03,20,19,22,4.70
2009,03,20,19,23,4.70
2009,03,20,19,24,4.70
2009,03,20,19,25,4.70
2009,03,20,19,26,4.60
2009,03,20,19,27,4.60
2009,03,20,19,28,4.60
2009,03,20,19,29,4.60
2009,03,20,19,30,4.60
2009,03,20,19,31,4.60
2009,03,20,19,32,4.60
2009,03,20,19,33,4.50
2009,03,20,19,34,4.50
2009,03,20,19,35,4.50
2009,03,20,19,36,4.50
2009,03,20,19,37,4.50
2009,03,20,19,38,4.40
2009,03,20,19,39,4.40
2009,03,20,19,40,4.40
2009,03,20,19,41,4.40
2009,03,20,19,42,4.30
2009,03,20,19,43,4.30
2009,03,20,19,44,4.30
2009,03,20,19,45,4.30
2009,03,20,19,46,4.30
2009,03,20,19,47,4.20
2009,03,20,19,48,4.20
2009,03,20,19,49,4.20
2009,03,20,19,50,4.20
2009,03,20,19,51,4.20
2009,03,20,19,52,4.20
2009,03,20,19,53,4.20
2009,03,20,19,54,4.20
2009,03,20,19,55,4.20
2009,03,20,19,56,4.20
2009,03,20,19,57,4.20
2009,03,20,19,58,4.20
2009,03,20,19,59,4.20
2009,03,20,20,00,4.20